TimeEST,TemperatureF,Dew PointF,Humidity,Sea Level PressureIn,VisibilityMPH,Wind Direction,Wind SpeedMPH,Gust SpeedMPH,PrecipitationIn,Events,Conditions,WindDirDegrees,DateUTC
12:51 AM,37.9,19.0,47,30.22,10.0,South,12.7,-,N/A,,Clear,190,2012-12-14 05:51:00
1:51 AM,37.4,19.4,48,30.20,10.0,SSW,13.8,-,N/A,,Clear,200,2012-12-14 06:51:00
2:51 AM,37.0,19.0,48,30.23,10.0,SSW,9.2,-,N/A,,Clear,200,2012-12-14 07:51:00
3:51 AM,37.0,19.0,48,30.22,10.0,SSW,10.4,-,N/A,,Clear,200,2012-12-14 08:51:00
4:51 AM,37.0,19.0,48,30.22,10.0,SSW,9.2,-,N/A,,Clear,210,2012-12-14 09:51:00
5:51 AM,37.0,19.9,50,30.22,10.0,SSW,10.4,-,N/A,,Clear,210,2012-12-14 10:51:00
6:51 AM,36.0,21.0,55,30.24,10.0,SW,9.2,-,N/A,,Clear,220,2012-12-14 11:51:00
7:51 AM,36.0,23.0,59,30.24,10.0,SSW,10.4,-,N/A,,Clear,210,2012-12-14 12:51:00
8:51 AM,37.0,25.0,62,30.25,10.0,SW,9.2,-,N/A,,Clear,220,2012-12-14 13:51:00
9:51 AM,39.2,26.6,61,30.24,10.0,WSW,6.9,-,N/A,,Clear,240,2012-12-14 14:51:00
10:51 AM,42.1,28.9,60,30.27,10.0,WSW,8.1,-,N/A,,Clear,240,2012-12-14 15:51:00
11:51 AM,43.0,32.0,65,30.26,10.0,West,11.5,-,N/A,,Clear,270,2012-12-14 16:51:00
12:51 PM,43.0,33.1,68,30.25,10.0,West,11.5,-,N/A,,Clear,270,2012-12-14 17:51:00
1:51 PM,43.0,34.0,71,30.24,10.0,West,8.1,-,N/A,,Clear,270,2012-12-14 18:51:00
2:51 PM,42.1,34.0,73,30.23,10.0,West,8.1,-,N/A,,Clear,260,2012-12-14 19:51:00
3:51 PM,42.1,35.1,76,30.23,10.0,West,4.6,-,N/A,,Clear,280,2012-12-14 20:51:00
4:51 PM,39.9,34.0,79,30.25,9.0,Calm,Calm,-,N/A,,Clear,0,2012-12-14 21:51:00
5:51 PM,37.0,32.0,82,30.26,8.0,Calm,Calm,-,N/A,,Clear,0,2012-12-14 22:51:00
6:51 PM,34.0,30.9,89,30.26,6.0,Calm,Calm,-,N/A,,Clear,0,2012-12-14 23:51:00
7:51 PM,32.0,30.0,92,30.26,5.0,Calm,Calm,-,N/A,,Clear,0,2012-12-15 00:51:00
8:51 PM,30.0,28.0,92,30.26,3.0,Calm,Calm,-,N/A,,Clear,0,2012-12-15 01:51:00
9:51 PM,30.0,28.0,92,30.26,4.0,Calm,Calm,-,N/A,,Clear,0,2012-12-15 02:51:00
10:51 PM,30.0,28.0,92,30.26,5.0,Calm,Calm,-,N/A,,Clear,0,2012-12-15 03:51:00
11:51 PM,30.0,27.0,88,30.25,5.0,Calm,Calm,-,N/A,,Clear,0,2012-12-15 04:51:00